Location: Unspecified
(48.2082°N, 0.0000°E)
Time: 16:17:49
(UTC+00:00)

Transit 4A - Pass Details

Date: 26 June 2019
Orbit: 863 x 981 km, 66.8° (Epoch: 22 August)

Event Time Altitude Azimuth Distance (km) Brightness Sun altitude
Rises 11:28:35 0° 301° (WNW) 3,684 10.8 64.2°
Reaches altitude 10° 11:32:37 10° 326° (NW) 2,743 10.2 64.4°
Maximum altitude 11:35:57 14° 357° (N) 2,436 10.0 64.6°
Drops below altitude 10° 11:39:17 10° 29° (NNE) 2,739 10.3 64.7°
Sets 11:43:19 0° 53° (NE) 3,676 10.9 64.8°
